WGS F9 (USA 275)

Last updated on Tue Sep 22 2026 00:03:14 GMT+0000 (Coordinated Universal Time)

1 42075U 17016A 26264.41549035 .00000000 00000+0 00000+0 0 9992 2 42075 0.0175 176.1888 0000277 316.8442 4.8590 1.00269934 34867
UTC large
Height (km)
Speed (km/s)
/
Latitude / Longitude
Inclination (degrees)
Orbital Period (minutes)
Azimuth
Elevation
Range (km)
Doppler Factor

Next 0 passes for location: London (51.5072 / 0.1276)

No passes found over London.
WGS F9 (USA 275)